Location: Dresden
(51.0500°N, 13.7500°E)
Time: 19:45:54
(UTC+00:00)

ISS - Visible Passes

Search period start: 26 May 2019 00:00
Search period end: 05 June 2019 00:00
Orbit: 408 x 418 km, 51.6° (Epoch: 27 May)

Date Brightness Start Highest point End Pass type
(mag) Time Alt. Az. Time Alt. Az. Time Alt. Az.
26 May -3.8 20:37:37 10° W 20:40:59 86° N 20:44:21 10° E visible
26 May -3.0 22:14:23 10° W 22:17:13 36° SW 22:17:13 36° SW visible
27 May -3.6 19:48:09 10° W 19:51:30 79° N 19:54:53 10° E visible
27 May -3.6 21:24:52 10° W 21:28:08 51° SSW 21:29:19 33° SE visible
28 May -3.8 20:35:23 10° W 20:38:43 69° SSW 20:41:26 15° ESE visible
28 May -1.9 22:12:28 10° W 22:14:16 19° SW 22:14:16 19° SW visible
29 May -2.7 21:22:44 10° W 21:25:41 29° SSW 21:26:24 26° S visible
30 May -3.1 20:33:08 10° W 20:36:18 41° SSW 20:38:34 17° SE visible
31 May -1.7 21:21:01 10° WSW 21:23:02 15° SW 21:23:35 15° SSW visible
01 Jun -2.1 20:31:04 10° W 20:33:44 22° SW 20:35:48 13° S visible
03 Jun -1.3 20:29:54 10° WSW 20:30:57 11° SW 20:32:00 10° SSW visible
